Flag for Gambia Weather past 2 weeks in Banjul, Gambia

Now
79 °F

Thunderstorms. Passing clouds.


Feels Like: 82 °F
Forecast: N/A
Wind: 12 mph from West

Location: Banjul / Yundum

Current Time: Jul 29, 2015 at 8:51:07 PM

Latest Report: Jul 29, 2015 at 8:00 PM


Visibility: 6 mi

Pressure: 29.89 "Hg

Humidity: 89%

Dew point: 75 °F

Location of BanjulLocation

Historic Weather in Banjul — Graph

°F

Banjul temperature yesterday

Maximum temperature yesterday: 88 °F (at 1:00 PM)
Minimum temperature yesterday: 77 °F (at 3:00 AM)
Average temperature yesterday: 80 °F

Past Weeks' High & Low Weather Summary

 TemperatureHumidityPressure
High91 °F (Jul 16, 3:00 PM)100% (Jul 19, 10:00 AM)32.90 "Hg (Jul 19, 10:00 AM)
Low70 °F (Jul 19, 7:00 AM)49% (Jul 24, 12:00 PM)29.77 "Hg (Jul 16, 5:00 PM)
Average82 °F80%29.89 "Hg
* Reported Jul 14 8:00 PM — Jul 29 8:00 PM, Banjul, Weather by CustomWeather, © 2015

Note: Actual official high and low records may vary slightly from our data, if they occured in-between our weather recording intervals... More about our weather records

Advertising

Banjul weather history for previous 24 hours

 ConditionsComfort  
Time TempWeatherWind HumidityBarometerVisibility
8:00 PM
Wed, Jul 29
79 °FThunderstorms. Passing clouds.12 mph89%29.89 "Hg6 mi
7:00 PM82 °FThunderstorms. Broken clouds.18 mph79%29.89 "HgN/A
6:00 PM84 °FThunderstorms. Broken clouds.22 mph70%29.83 "HgN/A
5:00 PM84 °FBroken clouds.18 mph74%29.89 "HgN/A
4:00 PM86 °FScattered clouds.23 mph70%29.86 "HgN/A
3:00 PM86 °FScattered clouds.25 mph70%29.89 "HgN/A
2:00 PM86 °FScattered clouds.25 mph70%29.89 "HgN/A
1:00 PM88 °FPartly sunny.22 mph70%29.89 "HgN/A
12:00 PM86 °FPartly sunny.22 mph75%29.89 "HgN/A
11:00 AM86 °FPartly sunny.17 mph70%29.89 "HgN/A
10:00 AM82 °FPartly sunny.13 mph79%29.89 "HgN/A
9:00 AM81 °FScattered clouds.12 mph89%29.89 "HgN/A
8:00 AM77 °FBroken clouds.10 mph100%29.86 "HgN/A
7:00 AM77 °FLight rain. Partly sunny.No wind94%29.86 "Hg6 mi
6:00 AM77 °FLight rain. Partly cloudy.No wind94%29.86 "Hg6 mi
5:00 AM77 °FLight rain. Partly cloudy.7 mph94%29.86 "Hg6 mi
4:00 AM75 °FLight rain. Overcast.8 mph100%29.86 "Hg6 mi
3:00 AM75 °FLight rain. Passing clouds.10 mph100%29.86 "Hg6 mi
2:00 AM77 °FPartly cloudy.7 mph94%29.89 "HgN/A
1:00 AM77 °FPartly cloudy.12 mph94%29.89 "HgN/A
12:00 AM77 °FPartly cloudy.8 mph94%29.92 "HgN/A
11:00 PM
Tue, Jul 28
77 °FPartly cloudy.6 mph94%29.92 "HgN/A
10:00 PM79 °FPartly cloudy.10 mph89%29.92 "HgN/A
9:00 PM79 °FPassing clouds.No wind94%29.92 "HgN/A
8:00 PM79 °FPassing clouds.3 mph89%29.89 "HgN/A
Weather by CustomWeather, © 2015

See weather overviewHow to use our weather pages